TimeEST,TemperatureF,Dew PointF,Humidity,Sea Level PressureIn,VisibilityMPH,Wind Direction,Wind SpeedMPH,Gust SpeedMPH,PrecipitationIn,Events,Conditions,WindDirDegrees,DateUTC
12:53 AM,43.0,37.9,82,30.29,10.0,North,11.5,-,N/A,,Overcast,350,2013-11-23 05:53:00
1:53 AM,42.1,37.0,82,30.30,10.0,NNW,9.2,-,N/A,,Overcast,340,2013-11-23 06:53:00
2:09 AM,42.1,36.0,79,30.29,10.0,North,9.2,-,N/A,,Overcast,360,2013-11-23 07:09:00
2:53 AM,42.1,35.1,76,30.30,10.0,North,9.2,-,N/A,,Overcast,360,2013-11-23 07:53:00
3:53 AM,41.0,35.1,79,30.30,10.0,North,10.4,-,N/A,,Overcast,350,2013-11-23 08:53:00
4:08 AM,41.0,35.1,79,30.30,10.0,NNW,6.9,-,N/A,,Overcast,340,2013-11-23 09:08:00
4:53 AM,39.9,33.1,77,30.31,10.0,North,11.5,-,N/A,,Overcast,350,2013-11-23 09:53:00
5:53 AM,39.9,33.1,77,30.31,10.0,North,11.5,-,N/A,,Overcast,350,2013-11-23 10:53:00
6:53 AM,39.0,33.1,79,30.33,10.0,North,10.4,-,N/A,,Overcast,350,2013-11-23 11:53:00
7:07 AM,39.0,32.0,76,30.33,10.0,North,11.5,-,N/A,,Overcast,350,2013-11-23 12:07:00
7:53 AM,39.0,32.0,76,30.36,10.0,North,6.9,-,N/A,,Overcast,360,2013-11-23 12:53:00
8:53 AM,39.0,32.0,76,30.36,10.0,North,9.2,-,N/A,,Overcast,10,2013-11-23 13:53:00
9:53 AM,39.0,30.9,73,30.38,10.0,NNE,9.2,-,N/A,,Overcast,20,2013-11-23 14:53:00
10:53 AM,39.0,30.0,70,30.38,10.0,NNW,5.8,-,N/A,,Overcast,330,2013-11-23 15:53:00
11:53 AM,43.0,30.9,62,30.37,10.0,NW,8.1,-,N/A,,Mostly Cloudy,320,2013-11-23 16:53:00
12:30 PM,42.1,28.0,58,30.34,10.0,Variable,5.8,-,N/A,,Scattered Clouds,0,2013-11-23 17:30:00
12:53 PM,42.1,28.9,60,30.35,10.0,NW,12.7,-,N/A,,Scattered Clouds,320,2013-11-23 17:53:00
1:53 PM,42.1,28.0,58,30.33,10.0,NNW,10.4,-,N/A,,Scattered Clouds,340,2013-11-23 18:53:00
2:53 PM,41.0,27.0,57,30.34,10.0,Variable,6.9,-,N/A,,Partly Cloudy,0,2013-11-23 19:53:00
3:53 PM,41.0,27.0,57,30.34,10.0,NW,6.9,-,N/A,,Clear,310,2013-11-23 20:53:00
4:53 PM,42.1,21.9,45,30.34,10.0,NW,10.4,-,N/A,,Clear,320,2013-11-23 21:53:00
5:53 PM,39.0,16.0,39,30.35,10.0,NW,5.8,-,N/A,,Clear,320,2013-11-23 22:53:00
6:53 PM,37.0,14.0,39,30.38,10.0,NW,11.5,-,N/A,,Clear,320,2013-11-23 23:53:00
7:53 PM,33.1,17.1,52,30.42,10.0,NNW,13.8,-,N/A,,Clear,340,2013-11-24 00:53:00
8:53 PM,30.9,16.0,54,30.45,10.0,North,12.7,21.9,N/A,,Clear,350,2013-11-24 01:53:00
9:53 PM,28.9,14.0,54,30.47,10.0,North,17.3,27.6,N/A,,Mostly Cloudy,360,2013-11-24 02:53:00
10:53 PM,27.0,12.9,56,30.49,10.0,North,10.4,-,N/A,,Clear,350,2013-11-24 03:53:00
11:53 PM,26.1,12.0,55,30.49,10.0,North,11.5,-,N/A,,Clear,350,2013-11-24 04:53:00